VE3KSR Weather Reports


Display with metric or nautical units.
time (UTC)temp
F
wind
direction
speed
MPH
gust
MPH
rain 1hr
in
rain 24hr
in
rain mn
in
humidity
%
barometer
mb
20150427115709 30 343 16.0 20.0 0.67 0.00 0.00 99 1011.8
20150427115651 30 349 16.0 21.0 0.67 0.00 0.00 99 1011.8
20150427115338 30 349 16.0 21.0 0.67 0.00 0.00 99 1011.8
20150427115211 30 345 14.0 19.0 0.67 0.00 0.00 99 1011.9
20150427115209 30 349 16.0 21.0 0.67 0.00 0.00 99 1011.8
20150427114711 30 346 13.0 17.0 0.67 0.00 0.00 99 1012.0
20150427114709 30 345 14.0 19.0 0.67 0.00 0.00 99 1011.9
20150427114209 30 346 13.0 17.0 0.67 0.00 0.00 99 1012.0
20150427113709 30 6 13.0 16.0 0.67 0.00 0.00 99 1012.0
20150427113209 30 346 13.0 17.0 0.67 0.00 0.00 99 1012.0
20150427113122 30 345 14.0 17.0 0.67 0.00 0.00 99 1012.3
20150427112711 30 345 14.0 17.0 0.67 0.00 0.00 99 1012.3
20150427112706 30 354 12.0 16.0 0.67 0.00 0.00 99 1011.8
20150427112326 30 354 12.0 16.0 0.67 0.00 0.00 99 1011.8
20150427112211 30 340 12.0 16.0 0.67 0.00 0.00 99 1011.8
20150427112209 30 354 12.0 16.0 0.67 0.00 0.00 99 1011.8
20150427111902 30 340 12.0 16.0 0.67 0.00 0.00 99 1011.8
20150427111709 30 340 12.0 16.0 0.67 0.00 0.00 99 1011.8
20150427111642 30 7 12.0 17.0 0.67 0.00 0.00 99 1011.9
20150427111329 30 7 12.0 17.0 0.67 0.00 0.00 99 1011.9
20150427111229 30 339 12.0 15.0 0.67 0.00 0.00 99 1011.7
20150427111210 30 7 12.0 17.0 0.67 0.00 0.00 99 1011.9
20150427110830 30 339 12.0 15.0 0.67 0.00 0.00 99 1011.7
20150427110717 30 343 14.0 16.0 0.67 0.00 0.00 98 1011.5
20150427110709 30 339 12.0 15.0 0.67 0.00 0.00 99 1011.7
20150427110209 30 343 14.0 16.0 0.67 0.00 0.00 98 1011.5
20150427105710 30 352 12.0 16.0 0.67 0.00 0.00 98 1011.4
20150427105450 30 14 12.0 17.0 0.67 0.00 0.00 98 1011.4
20150427105350 30 14 12.0 17.0 0.67 0.00 0.00 98 1011.4
20150427105209 30 14 12.0 17.0 0.67 0.00 0.00 98 1011.4
20150427104709 31 357 21.0 166.0 0.67 0.00 0.00 98 1011.3
20150427104209 30 347 13.0 17.0 0.67 0.00 0.00 98 1011.5
20150427103846 31 356 35.0 403.0 0.67 0.00 0.00 98 1011.5
20150427103710 31 356 35.0 403.0 0.67 0.00 0.00 98 1011.5
20150427103339 31 359 12.0 17.0 0.67 0.00 0.00 98 1011.6
20150427103209 31 359 12.0 17.0 0.67 0.00 0.00 98 1011.6
20150427102823 31 347 13.0 16.0 0.67 0.00 0.00 98 1011.6
20150427102709 31 347 13.0 16.0 0.67 0.00 0.00 98 1011.6
20150427102209 31 343 13.0 18.0 0.67 0.00 0.00 98 1011.6
20150427101838 31 17 13.0 17.0 0.67 0.00 0.00 98 1011.5
20150427101709 31 17 13.0 17.0 0.67 0.00 0.00 98 1011.5
20150427101358 31 8 14.0 17.0 0.67 0.00 0.00 98 1011.5
20150427101209 31 8 14.0 17.0 0.67 0.00 0.00 98 1011.5
20150427100847 31 359 16.0 20.0 0.67 0.00 0.00 98 1011.3
20150427100709 31 359 16.0 20.0 0.67 0.00 0.00 98 1011.3
20150427100351 31 352 30.0 524.0 0.67 0.00 0.00 98 1011.1
20150427100209 31 352 30.0 524.0 0.67 0.00 0.00 98 1011.1
20150427095709 31 354 18.0 295.0 0.67 0.00 0.00 98 1011.0
20150427095317 31 354 72.0 542.0 0.67 0.00 0.00 98 1010.9
20150427095209 31 354 72.0 542.0 0.67 0.00 0.00 98 1010.9
20150427094710 31 346 14.0 17.0 0.67 0.00 0.00 98 1010.8
20150427094347 31 338 12.0 18.0 0.67 0.00 0.00 98 1010.8
20150427094209 31 338 12.0 18.0 0.67 0.00 0.00 98 1010.8
20150427093850 32 347 13.0 18.0 0.67 0.00 0.00 98 1010.8
20150427093709 32 347 13.0 18.0 0.67 0.00 0.00 98 1010.8
20150427093209 32 7 11.0 14.0 0.67 0.00 0.00 98 1010.9
20150427092827 32 345 13.0 17.0 0.67 0.00 0.00 98 1010.9
20150427092709 32 345 13.0 17.0 0.67 0.00 0.00 98 1010.9
20150427092301 32 4 14.0 17.0 0.67 0.00 0.00 98 1011.0
20150427092209 32 4 14.0 17.0 0.67 0.00 0.00 98 1011.0
20150427091857 32 354 54.0 304.0 0.67 0.00 0.00 98 1011.1
20150427091803 32 354 54.0 304.0 0.67 0.00 0.00 98 1011.1
20150427091709 32 354 54.0 304.0 0.67 0.00 0.00 98 1011.1
20150427091343 32 350 16.0 20.0 0.67 0.00 0.00 98 1011.2
20150427091259 32 350 16.0 20.0 0.67 0.00 0.00 98 1011.2
20150427091209 32 350 16.0 20.0 0.67 0.00 0.00 98 1011.2
20150427090835 32 347 16.0 21.0 0.67 0.00 0.00 98 1011.2
20150427090710 32 347 16.0 21.0 0.67 0.00 0.00 98 1011.2
20150427090359 32 340 15.0 20.0 0.67 0.00 0.00 98 1011.2
20150427090209 32 340 15.0 20.0 0.67 0.00 0.00 98 1011.2
20150427085904 32 347 13.0 16.0 0.67 0.00 0.00 98 1011.1
20150427085824 32 347 13.0 16.0 0.67 0.00 0.00 98 1011.1
20150427085709 32 347 13.0 16.0 0.67 0.00 0.00 98 1011.1
20150427085209 32 3 14.0 17.0 0.67 0.00 0.00 98 1011.0
20150427084830 32 6 13.0 16.0 0.67 0.00 0.00 97 1010.9
20150427084710 32 6 13.0 16.0 0.67 0.00 0.00 97 1010.9
20150427084355 32 13 13.0 17.0 0.67 0.00 0.00 97 1010.7
20150427084209 32 13 13.0 17.0 0.67 0.00 0.00 97 1010.7
20150427083842 32 345 12.0 18.0 0.67 0.00 0.00 97 1010.7
20150427083710 32 345 12.0 18.0 0.67 0.00 0.00 97 1010.7
20150427083256 33 347 14.0 16.0 0.67 0.00 0.00 97 1010.6
20150427083210 33 347 14.0 16.0 0.67 0.00 0.00 97 1010.6
20150427082817 33 352 13.0 17.0 0.67 0.00 0.00 97 1010.9
20150427082710 33 352 13.0 17.0 0.67 0.00 0.00 97 1010.9
20150427082355 33 6 13.0 15.0 0.67 0.00 0.00 97 1010.8
20150427082305 33 6 13.0 15.0 0.67 0.00 0.00 97 1010.8
20150427082210 33 6 13.0 15.0 0.67 0.00 0.00 97 1010.8
20150427081903 33 357 14.0 18.0 0.67 0.00 0.00 97 1011.0
20150427081710 33 357 14.0 18.0 0.67 0.00 0.00 97 1011.0
20150427081409 33 14 14.0 19.0 0.67 0.00 0.00 97 1011.0
20150427081210 33 14 14.0 19.0 0.67 0.00 0.00 97 1011.0
20150427080843 33 356 12.0 16.0 0.67 0.00 0.00 97 1010.9
20150427080710 33 356 12.0 16.0 0.67 0.00 0.00 97 1010.9
20150427080339 33 18 15.0 18.0 0.67 0.00 0.00 97 1011.0
20150427080331 33 350 13.0 17.0 0.67 0.00 0.00 97 1010.9
20150427080302 33 18 15.0 18.0 0.67 0.00 0.00 97 1011.0
20150427080210 33 18 15.0 18.0 0.67 0.00 0.00 97 1011.0
20150427075900 33 350 13.0 17.0 0.67 0.00 0.00 97 1010.9
20150427075809 33 350 13.0 17.0 0.67 0.00 0.00 97 1010.9
20150427075710 33 350 13.0 17.0 0.67 0.00 0.00 97 1010.9
20150427075328 33 1 13.0 16.0 0.67 0.00 0.00 96 1010.7
20150427075210 33 1 13.0 16.0 0.67 0.00 0.00 96 1010.7
20150427074838 33 15 14.0 17.0 0.67 0.00 0.00 96 1010.6
20150427074710 33 15 14.0 17.0 0.67 0.00 0.00 96 1010.6
20150427074323 34 354 13.0 17.0 0.67 0.00 0.00 96 1010.5
20150427074210 34 354 13.0 17.0 0.67 0.00 0.00 96 1010.5
20150427073831 34 340 12.0 18.0 0.67 0.00 0.00 96 1010.5
20150427073711 34 340 12.0 18.0 0.67 0.00 0.00 96 1010.5
20150427073210 34 349 11.0 13.0 0.67 0.00 0.00 95 1010.5
20150427073202 34 20 13.0 16.0 0.67 0.00 0.00 95 1010.5
20150427072818 34 20 13.0 16.0 0.67 0.00 0.00 95 1010.5
20150427072710 34 20 13.0 16.0 0.67 0.00 0.00 95 1010.5
20150427072329 34 1 14.0 16.0 0.67 0.00 0.00 95 1010.6
20150427072210 34 1 14.0 16.0 0.67 0.00 0.00 95 1010.6
20150427071827 34 342 13.0 17.0 0.67 0.00 0.00 95 1010.7
20150427071710 34 342 13.0 17.0 0.67 0.00 0.00 95 1010.7
20150427071452 34 7 13.0 17.0 0.67 0.00 0.00 95 1010.9
20150427071346 34 7 13.0 17.0 0.67 0.00 0.00 95 1010.9
20150427071303 34 7 13.0 17.0 0.67 0.00 0.00 95 1010.9
20150427071210 34 7 13.0 17.0 0.67 0.00 0.00 95 1010.9
20150427070816 34 352 16.0 21.0 0.67 0.00 0.00 95 1010.9
20150427070712 34 352 16.0 21.0 0.67 0.00 0.00 95 1010.9
20150427070327 34 346 16.0 21.0 0.67 0.00 0.00 94 1011.0
20150427070210 34 346 16.0 21.0 0.67 0.00 0.00 94 1011.0
20150427065840 34 345 14.0 18.0 0.67 0.00 0.00 94 1011.0
20150427065710 34 345 14.0 18.0 0.67 0.00 0.00 94 1011.0
20150427065210 34 356 14.0 17.0 0.67 0.00 0.00 94 1011.0
20150427064825 34 8 13.0 17.0 0.67 0.00 0.00 94 1011.1
20150427064710 34 8 13.0 17.0 0.67 0.00 0.00 94 1011.1
20150427064637 34 1 12.0 16.0 0.67 0.00 0.00 94 1010.9
20150427064340 34 356 13.0 17.0 0.67 0.00 0.00 94 1011.1
20150427064210 34 356 13.0 17.0 0.67 0.00 0.00 94 1011.1
20150427063851 34 339 12.0 17.0 0.67 0.00 0.00 94 1011.0
20150427063808 34 339 12.0 17.0 0.67 0.00 0.00 94 1011.0
20150427063710 34 339 12.0 17.0 0.67 0.00 0.00 94 1011.0
20150427063317 34 1 12.0 16.0 0.67 0.00 0.00 94 1010.9
20150427063257 34 11 11.0 14.0 0.67 0.00 0.00 93 1010.8
20150427063210 34 1 12.0 16.0 0.67 0.00 0.00 94 1010.9
20150427062906 34 11 11.0 14.0 0.67 0.00 0.00 93 1010.8
20150427062825 34 11 11.0 14.0 0.67 0.00 0.00 93 1010.8
20150427062711 34 11 11.0 14.0 0.67 0.00 0.00 93 1010.8
20150427062356 34 4 13.0 16.0 0.67 0.00 0.00 93 1010.8
20150427062210 34 4 13.0 16.0 0.67 0.00 0.00 93 1010.8
20150427061856 34 8 14.0 16.0 0.67 0.00 0.00 93 1010.8
20150427061710 34 8 14.0 16.0 0.67 0.00 0.00 93 1010.8
20150427061407 34 359 16.0 19.0 0.67 0.00 0.00 93 1010.9
20150427061333 34 359 16.0 19.0 0.67 0.00 0.00 93 1010.9
20150427061210 34 359 16.0 19.0 0.67 0.00 0.00 93 1010.9
20150427060710 34 345 11.0 15.0 0.67 0.00 0.00 93 1011.1
20150427060404 35 18 11.0 15.0 0.67 0.00 0.00 93 1011.3
20150427060210 35 18 11.0 15.0 0.67 0.00 0.00 93 1011.3
20150427055710 35 14 13.0 17.0 0.67 0.00 0.00 93 1011.4
20150427055420 35 339 12.0 16.0 0.67 0.00 0.00 93 1011.5
20150427055210 35 339 12.0 16.0 0.67 0.00 0.00 93 1011.5
20150427054843 35 349 14.0 20.0 0.67 0.00 0.00 93 1011.7
20150427054710 35 349 14.0 18.0 0.67 0.00 0.00 93 1011.5
20150427054341 35 349 14.0 20.0 0.67 0.00 0.00 93 1011.7
20150427054210 35 349 14.0 20.0 0.67 0.00 0.00 93 1011.7
20150427053710 35 349 14.0 18.0 0.67 0.00 0.00 93 1011.7
20150427053210 35 13 14.0 18.0 0.67 0.00 0.00 93 1011.6
20150427052710 35 352 14.0 18.0 0.67 0.00 0.00 93 1011.5
20150427052210 35 357 14.0 19.0 0.67 0.00 0.00 93 1011.5
20150427051852 34 354 13.0 18.0 0.67 0.00 0.00 93 1011.4
20150427051712 34 354 13.0 18.0 0.67 0.00 0.00 93 1011.4
20150427051210 34 349 13.0 19.0 0.67 0.00 0.00 93 1011.3
20150427050710 34 342 14.0 18.0 0.67 0.00 0.00 93 1011.3
20150427050401 34 342 13.0 16.0 0.67 0.00 0.00 93 1011.4
20150427050210 34 342 13.0 16.0 0.67 0.00 0.00 93 1011.4
20150427045824 34 342 12.0 16.0 0.67 0.00 0.00 93 1011.5
20150427045710 34 342 12.0 16.0 0.67 0.00 0.00 93 1011.5
20150427045210 34 346 12.0 16.0 0.67 0.00 0.00 93 1011.5
20150427044710 34 343 11.0 17.0 0.67 0.00 0.00 93 1011.7
20150427044421 34 342 12.0 17.0 0.67 0.00 0.00 93 1011.9
20150427044210 34 342 12.0 17.0 0.67 0.00 0.00 93 1011.9
20150427043714 34 342 14.0 17.0 0.67 0.00 0.00 93 1011.9
20150427043211 34 319 12.0 17.0 0.67 0.00 0.00 93 1011.8
20150427042710 34 318 13.0 16.0 0.67 0.00 0.00 93 1011.7
20150427042332 34 335 12.0 16.0 0.67 0.00 0.00 93 1011.7
20150427042210 34 335 12.0 16.0 0.67 0.00 0.00 93 1011.7
20150427041710 34 319 11.0 14.0 0.67 0.00 0.00 92 1011.5
20150427041211 34 325 13.0 16.0 0.67 0.00 0.00 92 1011.5
20150427040711 34 340 12.0 15.0 0.67 0.00 0.00 92 1011.6
20150427040210 34 346 11.0 14.0 0.67 0.00 0.00 92 1011.7
20150427035711 34 338 11.0 13.0 0.67 0.00 0.00 92 1011.8
20150427035211 34 345 12.0 17.0 0.67 0.00 0.00 92 1011.9
20150427034711 34 343 12.0 15.0 0.67 0.00 0.00 92 1012.2
20150427034352 35 342 11.0 16.0 0.67 0.00 0.00 92 1012.4
20150427034210 35 342 11.0 16.0 0.67 0.00 0.00 92 1012.4
20150427033858 35 342 10.0 13.0 0.67 0.00 0.00 91 1012.4
20150427033712 35 342 10.0 13.0 0.67 0.00 0.00 91 1012.4
20150427033211 35 347 9.0 11.0 0.67 0.00 0.00 91 1012.4
20150427032711 35 349 11.0 13.0 0.67 0.00 0.00 91 1012.5
20150427032354 35 345 12.0 14.0 0.67 0.00 0.00 91 1012.6
20150427032213 35 345 12.0 14.0 0.67 0.00 0.00 91 1012.6
20150427031711 35 347 13.0 18.0 0.67 0.00 0.00 91 1012.5
20150427031421 35 343 15.0 17.0 0.67 0.00 0.00 91 1012.3
20150427031210 35 343 15.0 17.0 0.67 0.00 0.00 91 1012.3
20150427030710 35 347 12.0 18.0 0.67 0.00 0.00 91 1012.2
20150427030459 35 343 10.0 13.0 0.67 0.00 0.00 91 1012.3
20150427030210 35 343 10.0 13.0 0.67 0.00 0.00 91 1012.3
20150427025836 35 338 11.0 14.0 0.67 0.00 0.00 90 1012.3
20150427025712 35 338 11.0 14.0 0.67 0.00 0.00 90 1012.3
20150427025330 36 1 11.0 14.0 0.67 0.00 0.00 91 1012.2
20150427025210 36 1 11.0 14.0 0.67 0.00 0.00 91 1012.2
20150427024903 36 347 12.0 15.0 0.67 0.00 0.00 90 1012.3
20150427024711 36 347 12.0 15.0 0.67 0.00 0.00 90 1012.3
20150427024210 36 350 13.0 20.0 0.67 0.00 0.00 90 1012.5
20150427023910 36 1 10.0 13.0 0.67 0.00 0.00 90 1012.7
20150427023710 36 1 10.0 13.0 0.67 0.00 0.00 90 1012.7
20150427023210 36 356 11.0 14.0 0.67 0.00 0.00 89 1012.8
20150427022711 36 352 13.0 16.0 0.67 0.00 0.00 89 1013.0
20150427022210 36 345 15.0 18.0 0.67 0.00 0.00 88 1012.8
20150427021904 36 347 15.0 22.0 0.67 0.00 0.00 88 1012.9
20150427021712 36 347 15.0 22.0 0.67 0.00 0.00 88 1012.9
20150427021339 36 339 16.0 20.0 0.67 0.00 0.00 88 1012.7
20150427021210 36 339 16.0 20.0 0.67 0.00 0.00 88 1012.7
20150427020711 36 349 17.0 21.0 0.67 0.00 0.00 89 1012.6
20150427020210 36 350 14.0 21.0 0.67 0.00 0.00 89 1012.6
20150427015711 36 345 15.0 20.0 0.67 0.00 0.00 89 1012.6
20150427015210 36 345 15.0 20.0 0.67 0.00 0.00 88 1012.5
20150427014712 37 343 15.0 20.0 0.67 0.00 0.00 88 1012.6
20150427014343 37 4 18.0 22.0 0.67 0.00 0.00 88 1012.5
20150427014210 37 4 18.0 22.0 0.67 0.00 0.00 88 1012.5
20150427013712 37 347 12.0 18.0 0.67 0.00 0.00 87 1012.7
20150427013211 37 350 16.0 20.0 0.67 0.00 0.00 87 1012.7
20150427012711 37 336 13.0 17.0 0.67 0.00 0.00 87 1012.9
20150427012210 37 343 13.0 17.0 0.67 0.00 0.00 86 1012.9
20150427011711 37 340 13.0 16.0 0.67 0.00 0.00 86 1013.1
20150427011420 37 338 17.0 21.0 0.67 0.00 0.00 86 1013.1
20150427011211 37 338 17.0 21.0 0.67 0.00 0.00 86 1013.1
20150427010711 37 8 18.0 23.0 0.67 0.00 0.00 86 1013.0
20150427010210 37 354 16.0 20.0 0.67 0.00 0.00 86 1013.1
20150427005712 37 8 18.0 23.0 0.67 0.00 0.00 86 1012.9
20150427005349 37 346 15.0 18.0 0.67 0.00 0.00 85 1012.9
20150427005211 37 346 15.0 18.0 0.67 0.00 0.00 85 1012.9
20150427004711 37 28 13.0 17.0 0.67 0.00 0.00 85 1012.7
20150427004433 37 10 13.0 16.0 0.67 0.00 0.00 85 1012.6
20150427004213 37 10 13.0 16.0 0.67 0.00 0.00 85 1012.6
20150427003832 38 354 14.0 18.0 0.67 0.00 0.00 85 1012.6
20150427003711 38 354 14.0 18.0 0.67 0.00 0.00 85 1012.6
20150427003211 38 30 16.0 20.0 0.67 0.00 0.00 84 1012.6
20150427002711 38 8 17.0 21.0 0.67 0.00 0.00 84 1012.6
20150427002340 38 349 17.0 21.0 0.67 0.00 0.00 84 1012.7
20150427002211 38 349 17.0 21.0 0.67 0.00 0.00 84 1012.7
20150427001832 38 357 15.0 19.0 0.67 0.00 0.00 85 1012.8
20150427001711 38 357 15.0 19.0 0.67 0.00 0.00 85 1012.8
20150427001334 38 349 13.0 18.0 0.67 0.00 0.00 85 1013.0
20150427001211 38 349 13.0 18.0 0.67 0.00 0.00 85 1013.0
20150427000829 38 349 13.0 16.0 0.67 0.00 0.00 85 1013.0
20150427000711 38 349 13.0 16.0 0.67 0.00 0.00 85 1013.0
20150427000338 38 28 17.0 21.0 0.67 0.00 0.00 84 1013.0
20150427000211 38 28 17.0 21.0 0.67 0.00 0.00 84 1013.0
20150426235833 38 17 18.0 21.0 0.67 0.00 0.00 84 1013.0
20150426235712 38 17 18.0 21.0 0.67 0.00 0.00 84 1013.0
20150426235258 38 342 19.0 24.0 0.67 0.00 0.00 83 1012.9
20150426235211 38 342 19.0 24.0 0.67 0.00 0.00 83 1012.9
20150426234841 38 20 17.0 21.0 0.67 0.00 0.00 83 1012.7
20150426234712 38 20 17.0 21.0 0.67 0.00 0.00 83 1012.7
20150426234324 38 4 13.0 20.0 0.67 0.00 0.00 82 1012.6
20150426234211 38 4 13.0 20.0 0.67 0.00 0.00 82 1012.6
20150426233821 39 342 15.0 18.0 0.67 0.00 0.00 82 1012.5
20150426233714 39 342 15.0 18.0 0.67 0.00 0.00 82 1012.5
20150426233318 39 49 16.0 21.0 0.67 0.00 0.00 81 1012.3
20150426233211 39 49 16.0 21.0 0.67 0.00 0.00 81 1012.3
20150426232824 39 7 17.0 24.0 0.67 0.00 0.00 81 1012.4
20150426232711 39 7 17.0 24.0 0.67 0.00 0.00 81 1012.4
20150426232211 39 11 17.0 21.0 0.67 0.00 0.00 80 1012.2
20150426231922 39 14 16.0 21.0 0.67 0.00 0.00 80 1012.3
20150426231841 39 14 16.0 21.0 0.67 0.00 0.00 80 1012.3
20150426231711 39 14 16.0 21.0 0.67 0.00 0.00 80 1012.3
20150426231451 39 11 17.0 23.0 0.67 0.00 0.00 80 1012.2
20150426231329 39 11 17.0 23.0 0.67 0.00 0.00 80 1012.2
20150426231211 39 11 17.0 23.0 0.67 0.00 0.00 80 1012.2
20150426230812 39 353 17.0 24.0 0.67 0.00 0.00 80 1012.3
20150426230711 39 353 17.0 24.0 0.67 0.00 0.00 80 1012.3
20150426230301 39 6 19.0 26.0 0.67 0.00 0.00 80 1012.4
20150426230211 39 6 19.0 26.0 0.67 0.00 0.00 80 1012.4
20150426225849 39 354 17.0 25.0 0.67 0.00 0.00 79 1012.6
20150426225711 39 354 17.0 25.0 0.67 0.00 0.00 79 1012.6
20150426225335 39 333 16.0 22.0 0.67 0.00 0.00 79 1012.6
20150426225211 39 333 16.0 22.0 0.67 0.00 0.00 79 1012.6
20150426224901 39 356 17.0 24.0 0.67 0.00 0.00 80 1012.7
20150426224711 39 356 17.0 24.0 0.67 0.00 0.00 80 1012.7
20150426224329 39 347 21.0 27.0 0.67 0.00 0.00 80 1012.4
20150426224211 39 347 21.0 27.0 0.67 0.00 0.00 80 1012.4
20150426223809 40 354 17.0 25.0 0.67 0.00 0.00 80 1012.5
20150426223711 40 354 17.0 25.0 0.67 0.00 0.00 80 1012.5
20150426223324 40 339 19.0 26.0 0.67 0.00 0.00 80 1012.4
20150426223211 40 339 19.0 26.0 0.67 0.00 0.00 80 1012.4
20150426222847 40 338 21.0 28.0 0.67 0.00 0.00 78 1012.4
20150426222711 40 338 21.0 28.0 0.67 0.00 0.00 78 1012.4
20150426222334 41 336 21.0 30.0 0.67 0.00 0.00 77 1011.9
20150426222211 41 336 21.0 30.0 0.67 0.00 0.00 77 1011.9
20150426221906 40 15 20.0 26.0 0.67 0.00 0.00 78 1012.3
20150426221711 40 15 20.0 26.0 0.67 0.00 0.00 78 1012.3
20150426221659 40 342 22.0 29.0 0.67 0.00 0.00 79 1012.0
20150426221330 40 342 22.0 29.0 0.67 0.00 0.00 79 1012.0
20150426221211 40 342 22.0 29.0 0.67 0.00 0.00 79 1012.0
20150426220817 40 11 20.0 25.0 0.67 0.00 0.00 79 1011.9
20150426220711 40 11 20.0 25.0 0.67 0.00 0.00 79 1011.9
20150426220308 40 7 19.0 27.0 0.67 0.00 0.00 79 1011.9
20150426220211 40 7 19.0 27.0 0.67 0.00 0.00 79 1011.9
20150426215829 40 7 18.0 25.0 0.67 0.00 0.00 79 1012.0
20150426215711 40 7 18.0 25.0 0.67 0.00 0.00 79 1012.0
20150426215319 40 352 19.0 25.0 0.67 0.00 0.00 78 1011.9
20150426215211 40 352 19.0 25.0 0.67 0.00 0.00 78 1011.9
20150426214829 40 338 21.0 28.0 0.67 0.00 0.00 78 1011.9
20150426214711 40 338 21.0 28.0 0.67 0.00 0.00 78 1011.9
20150426214529 40 11 18.0 24.0 0.67 0.00 0.00 78 1012.3
20150426214211 40 11 18.0 24.0 0.67 0.00 0.00 78 1012.3
20150426213823 40 349 22.0 26.0 0.67 0.00 0.00 77 1012.3
20150426213711 40 349 22.0 26.0 0.67 0.00 0.00 77 1012.3
20150426213211 41 345 20.0 26.0 0.67 0.00 0.00 77 1012.5
20150426213041 41 349 20.0 25.0 0.67 0.00 0.00 77 1012.4
20150426212712 41 349 20.0 25.0 0.67 0.00 0.00 77 1012.4
20150426212330 40 3 20.0 26.0 0.67 0.00 0.00 77 1012.4
20150426212211 40 3 20.0 26.0 0.67 0.00 0.00 77 1012.4
20150426211958 41 4 20.0 26.0 0.67 0.00 0.00 77 1012.4
20150426211955 41 13 21.0 27.0 0.67 0.00 0.00 77 1012.3
20150426211840 41 4 20.0 26.0 0.67 0.00 0.00 77 1012.4
20150426211711 41 4 20.0 26.0 0.67 0.00 0.00 77 1012.4
20150426211211 41 13 21.0 27.0 0.67 0.00 0.00 77 1012.3
20150426210711 41 10 23.0 28.0 0.67 0.00 0.00 76 1012.0
20150426210211 41 18 18.0 22.0 0.67 0.00 0.00 77 1012.2
20150426205858 41 4 17.0 24.0 0.67 0.00 0.00 76 1011.9
20150426205711 41 4 17.0 24.0 0.67 0.00 0.00 76 1011.9
20150426205330 42 340 22.0 29.0 0.67 0.00 0.00 75 1011.7
20150426205213 42 340 22.0 29.0 0.67 0.00 0.00 75 1011.7
20150426204712 43 352 18.0 25.0 0.67 0.00 0.00 74 1011.6
20150426204356 43 340 23.0 29.0 0.67 0.00 0.00 73 1011.6
20150426204321 43 340 23.0 29.0 0.67 0.00 0.00 73 1011.6
20150426204211 43 340 23.0 29.0 0.67 0.00 0.00 73 1011.6
20150426203823 43 343 22.0 30.0 0.67 0.00 0.00 71 1011.4
20150426203711 43 343 22.0 30.0 0.67 0.00 0.00 71 1011.4
20150426203211 43 347 18.0 26.0 0.67 0.00 0.00 71 1011.5
20150426202711 42 14 22.0 27.0 0.67 0.00 0.00 72 1011.6
20150426202412 42 17 21.0 28.0 0.67 0.00 0.00 72 1011.7
20150426202211 42 17 21.0 28.0 0.67 0.00 0.00 72 1011.7
20150426201711 42 350 22.0 27.0 0.67 0.00 0.00 75 1011.8
20150426201603 42 4 22.0 28.0 0.67 0.00 0.00 73 1012.0
20150426201357 42 4 22.0 28.0 0.67 0.00 0.00 73 1012.0
20150426201211 42 4 22.0 28.0 0.67 0.00 0.00 73 1012.0
20150426200711 43 343 21.0 27.0 0.67 0.00 0.00 73 1012.2
20150426200212 43 350 22.0 31.0 0.67 0.00 0.00 73 1012.3
20150426195711 43 345 23.0 31.0 0.67 0.00 0.00 73 1011.9
20150426194337 43 20 21.0 26.0 0.67 0.00 0.00 72 1011.6
20150426194211 43 20 21.0 26.0 0.67 0.00 0.00 72 1011.6
20150426193712 43 359 19.0 24.0 0.67 0.00 0.00 71 1011.6
20150426193211 43 349 17.0 24.0 0.67 0.00 0.00 72 1011.5
20150426192711 43 13 20.0 26.0 0.67 0.00 0.00 72 1011.4
20150426192348 43 10 18.0 25.0 0.67 0.00 0.00 72 1011.4
20150426192211 43 10 18.0 25.0 0.67 0.00 0.00 72 1011.4
20150426191712 43 345 21.0 28.0 0.67 0.00 0.00 72 1011.3
20150426191327 43 27 19.0 23.0 0.67 0.00 0.00 71 1011.4
20150426191211 43 27 19.0 23.0 0.67 0.00 0.00 71 1011.4
20150426190845 43 10 19.0 25.0 0.67 0.00 0.00 71 1011.5
20150426190712 43 10 19.0 25.0 0.67 0.00 0.00 71 1011.5
20150426190212 43 24 17.0 22.0 0.67 0.00 0.00 70 1011.5
20150426185712 43 8 20.0 28.0 0.67 0.00 0.00 70 1011.7
20150426185326 43 346 18.0 26.0 0.67 0.00 0.00 71 1012.0
20150426185211 43 346 18.0 26.0 0.67 0.00 0.00 71 1012.0
20150426184711 43 14 16.0 22.0 0.67 0.00 0.00 71 1011.9
20150426184326 43 37 19.0 27.0 0.67 0.00 0.00 72 1012.0
20150426184211 43 37 19.0 27.0 0.67 0.00 0.00 72 1012.0
20150426183711 42 15 15.0 18.0 0.67 0.00 0.00 73 1012.2
20150426183212 42 8 18.0 23.0 0.67 0.00 0.00 72 1011.9
20150426182712 42 17 19.0 24.0 0.67 0.00 0.00 72 1011.9
20150426182212 42 10 19.0 25.0 0.67 0.00 0.00 72 1011.7
20150426181711 43 349 19.0 25.0 0.67 0.00 0.00 70 1011.7
20150426181212 43 347 18.0 25.0 0.67 0.00 0.00 71 1011.6
20150426180711 43 345 14.0 18.0 0.67 0.00 0.00 71 1011.5
20150426180214 43 25 18.0 21.0 0.67 0.00 0.00 71 1011.5
20150426175843 43 27 14.0 20.0 0.67 0.00 0.00 71 1011.5
20150426175711 43 27 14.0 20.0 0.67 0.00 0.00 71 1011.5
20150426175212 42 349 16.0 22.0 0.67 0.00 0.00 72 1011.4
20150426174711 43 349 15.0 20.0 0.67 0.00 0.00 70 1011.6
20150426174212 43 0 15.0 19.0 0.67 0.00 0.00 72 1011.7
20150426173711 42 30 17.0 22.0 0.67 0.00 0.00 71 1011.8
20150426173213 42 345 18.0 24.0 0.67 0.00 0.00 71 1011.9
20150426172828 42 35 16.0 21.0 0.67 0.00 0.00 72 1012.2
20150426172713 42 35 16.0 21.0 0.67 0.00 0.00 72 1012.2
20150426172337 42 350 15.0 20.0 0.67 0.00 0.00 72 1012.3
20150426172211 42 350 15.0 20.0 0.67 0.00 0.00 72 1012.3
20150426171712 42 352 17.0 24.0 0.67 0.00 0.00 71 1012.2
20150426171400 42 25 13.0 18.0 0.67 0.00 0.00 71 1012.3
20150426171212 42 25 13.0 18.0 0.67 0.00 0.00 71 1012.3
20150426170712 42 352 16.0 19.0 0.67 0.00 0.00 73 1012.2
20150426170339 42 31 17.0 24.0 0.67 0.00 0.00 73 1012.0
20150426170211 42 31 17.0 24.0 0.67 0.00 0.00 73 1012.0
20150426165820 42 7 15.0 20.0 0.67 0.00 0.00 72 1012.2
20150426165714 42 7 15.0 20.0 0.67 0.00 0.00 72 1012.2
20150426165354 42 18 14.0 18.0 0.67 0.00 0.00 71 1012.0
20150426165213 42 18 14.0 18.0 0.67 0.00 0.00 71 1012.0
20150426164712 42 35 17.0 22.0 0.67 0.00 0.00 71 1012.0
20150426164212 42 343 16.0 23.0 0.67 0.00 0.00 70 1012.3
20150426163712 41 10 18.0 22.0 0.67 0.00 0.00 71 1012.4
20150426163213 41 41 18.0 21.0 0.67 0.00 0.00 74 1012.5
20150426162712 41 342 19.0 27.0 0.67 0.00 0.00 73 1012.6
20150426162212 41 1 14.0 20.0 0.67 0.00 0.00 73 1012.6
20150426161712 41 18 15.0 18.0 0.67 0.00 0.00 71 1012.5
20150426161212 41 46 15.0 19.0 0.67 0.00 0.00 71 1012.5
20150426160826 41 345 13.0 18.0 0.67 0.00 0.00 71 1012.3
20150426160712 41 345 13.0 18.0 0.67 0.00 0.00 71 1012.3
20150426160212 40 59 16.0 19.0 0.67 0.00 0.00 71 1012.2
20150426155712 40 11 15.0 20.0 0.67 0.00 0.00 72 1012.2
20150426155212 40 30 17.0 24.0 0.67 0.00 0.00 73 1012.0
20150426154712 40 14 14.0 20.0 0.67 0.00 0.00 73 1012.2
20150426154344 40 23 16.0 20.0 0.67 0.00 0.00 73 1012.0
20150426154212 40 23 16.0 20.0 0.67 0.00 0.00 73 1012.0
20150426153713 40 24 13.0 17.0 0.67 0.00 0.00 74 1012.4
20150426153213 40 345 13.0 18.0 0.67 0.00 0.00 74 1012.4
20150426152846 40 27 16.0 20.0 0.67 0.00 0.00 73 1012.5
20150426152712 40 27 16.0 20.0 0.67 0.00 0.00 73 1012.5
20150426152212 41 48 13.0 16.0 0.67 0.00 0.00 72 1012.7
20150426151712 40 1 12.0 16.0 0.67 0.00 0.00 75 1012.7
20150426151212 39 1 15.0 20.0 0.67 0.00 0.00 75 1012.6
20150426150712 40 45 14.0 18.0 0.67 0.00 0.00 74 1012.4
20150426150212 39 34 16.0 20.0 0.67 0.00 0.00 74 1012.3
20150426145712 39 53 17.0 20.0 0.67 0.00 0.00 75 1012.3
20150426145333 39 38 16.0 20.0 0.67 0.00 0.00 74 1012.2
20150426145212 39 38 16.0 20.0 0.67 0.00 0.00 74 1012.2
20150426144712 39 34 16.0 21.0 0.67 0.00 0.00 76 1012.2
20150426144212 39 18 18.0 23.0 0.67 0.00 0.00 76 1012.2
20150426144112 38 34 16.0 21.0 0.67 0.00 0.00 75 1012.3
20150426143713 38 34 16.0 21.0 0.67 0.00 0.00 75 1012.3
20150426143635 38 39 15.0 19.0 0.67 0.00 0.00 78 1012.4
20150426143212 38 39 15.0 19.0 0.67 0.00 0.00 78 1012.4
20150426143030 38 14 14.0 19.0 0.67 0.00 0.00 78 1012.4
20150426142716 38 51 11.0 14.0 0.67 0.00 0.00 79 1012.5
20150426142713 38 14 14.0 19.0 0.67 0.00 0.00 78 1012.4
20150426142213 38 68 9.0 12.0 0.67 0.00 0.00 77 1012.5
20150426141712 38 68 9.0 12.0 0.67 0.00 0.00 77 1012.5
20150426141647 38 82 11.0 14.0 0.67 0.00 0.00 76 1012.3
20150426141212 38 82 11.0 14.0 0.67 0.00 0.00 76 1012.3
20150426141056 38 53 9.0 11.0 0.67 0.00 0.00 79 1012.3
20150426140713 38 53 9.0 11.0 0.67 0.00 0.00 79 1012.3
20150426140556 37 63 12.0 15.0 0.67 0.00 0.00 79 1012.4
20150426140213 37 63 12.0 15.0 0.67 0.00 0.00 79 1012.4
20150426140110 37 87 7.0 11.0 0.67 0.00 0.00 80 1012.2
20150426135829 37 87 7.0 11.0 0.67 0.00 0.00 80 1012.2
20150426135712 37 87 7.0 11.0 0.67 0.00 0.00 80 1012.2
20150426135636 37 63 10.0 14.0 0.67 0.00 0.00 78 1012.3
20150426135212 37 63 10.0 14.0 0.67 0.00 0.00 78 1012.3
20150426135132 37 73 10.0 14.0 0.67 0.00 0.00 80 1012.4
20150426134828 37 73 10.0 14.0 0.67 0.00 0.00 80 1012.4
20150426134712 37 73 10.0 14.0 0.67 0.00 0.00 80 1012.4
20150426134344 37 70 9.0 12.0 0.67 0.00 0.00 81 1012.5
20150426134212 37 70 9.0 12.0 0.67 0.00 0.00 81 1012.5
20150426133725 36 70 8.0 11.0 0.67 0.00 0.00 82 1012.5
20150426133712 36 53 6.0 9.0 0.67 0.00 0.00 82 1012.5
20150426133403 36 70 8.0 11.0 0.67 0.00 0.00 82 1012.5
20150426133215 36 52 9.0 12.0 0.67 0.00 0.00 82 1012.6
20150426132712 36 52 9.0 12.0 0.67 0.00 0.00 82 1012.6
20150426132212 36 108 9.0 11.0 0.67 0.00 0.00 79 1012.5
20150426132143 36 69 8.0 10.0 0.67 0.00 0.00 80 1012.5
20150426131712 36 69 8.0 10.0 0.67 0.00 0.00 80 1012.5
20150426131212 36 51 7.0 10.0 0.67 0.00 0.00 80 1012.4
20150426130713 35 70 9.0 11.0 0.67 0.00 0.00 79 1012.3
20150426130538 35 101 10.0 12.0 0.67 0.00 0.00 81 1012.3
20150426130212 35 101 10.0 12.0 0.67 0.00 0.00 81 1012.3
20150426125836 35 59 10.0 12.0 0.67 0.00 0.00 83 1012.4
20150426125713 35 59 10.0 12.0 0.67 0.00 0.00 83 1012.4
20150426125519 35 93 11.0 12.0 0.67 0.00 0.00 84 1012.4
20150426125315 35 62 11.0 13.0 0.67 0.00 0.00 78 1012.6
20150426125212 35 93 11.0 12.0 0.67 0.00 0.00 84 1012.4
20150426124713 35 62 11.0 13.0 0.67 0.00 0.00 78 1012.6
20150426124648 34 15 10.0 12.0 0.67 0.00 0.00 87 1012.6
20150426124330 34 15 10.0 12.0 0.67 0.00 0.00 87 1012.6
20150426124213 34 15 10.0 12.0 0.67 0.00 0.00 87 1012.6
20150426124040 34 83 10.0 12.0 0.67 0.00 0.00 87 1012.7
20150426123714 34 83 10.0 12.0 0.67 0.00 0.00 87 1012.7
20150426123212 34 45 10.0 12.0 0.67 0.00 0.00 87 1012.7
20150426123209 33 72 10.0 13.0 0.67 0.00 0.00 88 1012.6
20150426122712 33 72 10.0 13.0 0.67 0.00 0.00 88 1012.6
20150426122533 33 98 11.0 13.0 0.67 0.00 0.00 88 1012.5
20150426122214 33 90 11.0 14.0 0.67 0.00 0.00 88 1012.4
20150426122212 33 98 11.0 13.0 0.67 0.00 0.00 88 1012.5
20150426121712 33 90 11.0 14.0 0.67 0.00 0.00 88 1012.4
20150426121613 33 101 10.0 12.0 0.67 0.00 0.00 89 1012.3
20150426121212 33 101 10.0 12.0 0.67 0.00 0.00 89 1012.3
20150426120713 32 94 10.0 12.0 0.67 0.00 0.00 82 1012.0
20150426120601 32 69 11.0 13.0 0.67 0.00 0.00 90 1011.9
20150426120339 32 69 11.0 13.0 0.67 0.00 0.00 90 1011.9
20150426120212 32 69 11.0 13.0 0.67 0.00 0.00 90 1011.9
20150426120113 32 76 11.0 13.0 0.67 0.00 0.00 90 1012.2